TimeCDT,TemperatureF,Dew PointF,Humidity,Sea Level PressureIn,VisibilityMPH,Wind Direction,Wind SpeedMPH,Gust SpeedMPH,PrecipitationIn,Events,Conditions,WindDirDegrees,DateUTC
12:53 AM,64.9,64.0,97,29.99,4.0,Calm,Calm,-,0.00,,Overcast,0,2013-05-03 05:53:00
1:53 AM,60.1,57.9,93,29.96,7.0,WNW,15.0,23.0,0.01,Rain,Light Rain,300,2013-05-03 06:53:00
2:11 AM,57.2,55.4,94,29.94,2.5,NNW,16.1,25.3,0.06,Rain,Rain,330,2013-05-03 07:11:00
2:14 AM,57.2,55.4,94,29.94,3.0,NW,17.3,25.3,0.06,Rain,Rain,320,2013-05-03 07:14:00
2:18 AM,57.2,55.4,94,29.94,2.5,NW,13.8,-,0.10,Rain,Rain,310,2013-05-03 07:18:00
2:37 AM,57.2,55.4,94,29.93,4.0,NW,12.7,24.2,0.17,Rain,Rain,320,2013-05-03 07:37:00
2:45 AM,55.4,55.4,100,29.94,1.8,NW,11.5,17.3,0.24,Rain,Heavy Rain,310,2013-05-03 07:45:00
2:53 AM,55.0,54.0,96,29.96,2.0,NW,13.8,-,0.27,Rain,Rain,320,2013-05-03 07:53:00
3:02 AM,55.4,53.6,94,29.94,5.0,NW,15.0,20.7,0.00,Rain,Light Rain,320,2013-05-03 08:02:00
3:20 AM,53.6,53.6,100,29.94,6.0,NW,19.6,-,0.00,Rain,Light Rain,320,2013-05-03 08:20:00
3:47 AM,53.6,51.8,94,29.94,5.0,NNW,16.1,-,0.01,Rain,Light Rain,330,2013-05-03 08:47:00
3:48 AM,54.0,52.0,93,29.96,5.0,NNW,15.0,-,0.01,Rain,Light Rain,330,2013-05-03 08:48:00
3:59 AM,53.6,51.8,94,29.94,6.0,NW,17.3,25.3,0.00,Rain,Light Rain,320,2013-05-03 08:59:00
4:34 AM,51.8,51.8,100,29.94,4.0,NW,13.8,-,0.00,Rain,Light Rain,320,2013-05-03 09:34:00
4:53 AM,51.1,48.9,92,29.96,5.0,NNW,16.1,24.2,0.00,Rain,Light Rain,340,2013-05-03 09:53:00
5:53 AM,48.9,48.0,97,29.98,5.0,NW,17.3,-,0.03,Rain,Light Rain,320,2013-05-03 10:53:00
6:02 AM,48.2,46.4,93,29.96,7.0,NW,15.0,24.2,0.00,Rain,Light Rain,320,2013-05-03 11:02:00
6:12 AM,48.2,46.4,93,29.96,8.0,NW,16.1,-,0.00,,Overcast,320,2013-05-03 11:12:00
6:38 AM,48.2,46.4,93,29.97,7.0,NW,18.4,24.2,0.00,,Overcast,320,2013-05-03 11:38:00
6:51 AM,48.2,46.4,93,29.97,10.0,NW,19.6,-,0.00,,Overcast,320,2013-05-03 11:51:00
6:53 AM,48.0,46.0,93,30.00,10.0,NW,16.1,25.3,0.00,,Overcast,320,2013-05-03 11:53:00
7:07 AM,48.2,46.4,93,29.98,4.0,NW,16.1,-,0.00,Rain,Light Rain,320,2013-05-03 12:07:00
7:17 AM,48.2,46.4,93,29.98,5.0,NW,18.4,24.2,0.00,Rain,Light Rain,320,2013-05-03 12:17:00
7:38 AM,46.4,46.4,100,29.98,2.5,NW,13.8,-,0.00,Rain,Light Rain,310,2013-05-03 12:38:00
7:53 AM,46.9,45.0,93,30.01,1.5,NW,16.1,20.7,0.03,Rain,Rain,310,2013-05-03 12:53:00
8:01 AM,46.4,44.6,93,29.99,3.0,NW,18.4,23.0,0.01,Rain,Light Rain,310,2013-05-03 13:01:00
8:16 AM,46.4,44.6,93,29.98,4.0,NW,15.0,25.3,0.01,Rain,Light Rain,320,2013-05-03 13:16:00
8:36 AM,46.4,44.6,93,29.99,3.0,NW,15.0,19.6,0.01,Rain,Light Rain,310,2013-05-03 13:36:00
8:43 AM,46.4,44.6,93,29.99,4.0,NW,12.7,-,0.01,Rain,Light Rain,310,2013-05-03 13:43:00
8:53 AM,46.9,45.0,93,30.01,4.0,NW,13.8,19.6,0.02,Rain,Light Rain,310,2013-05-03 13:53:00
9:12 AM,46.4,44.6,93,29.99,3.0,NW,16.1,21.9,0.00,Rain,Light Rain,310,2013-05-03 14:12:00
9:19 AM,46.4,44.6,93,29.99,3.0,NW,15.0,21.9,0.01,Rain,Light Rain,310,2013-05-03 14:19:00
9:29 AM,46.4,44.6,93,29.99,5.0,NW,12.7,-,0.01,Rain,Light Rain,320,2013-05-03 14:29:00
9:53 AM,46.9,45.0,93,30.02,3.0,NW,15.0,-,0.01,Rain,Rain,310,2013-05-03 14:53:00
10:09 AM,46.4,44.6,93,30.02,3.0,West,11.5,-,0.00,Rain,Light Rain,280,2013-05-03 15:09:00
10:19 AM,46.4,44.6,93,30.00,2.5,NW,15.0,-,0.01,Rain,Light Rain,310,2013-05-03 15:19:00
10:34 AM,46.4,44.6,93,30.02,3.0,NW,13.8,23.0,0.01,Rain,Light Rain,310,2013-05-03 15:34:00
10:42 AM,46.4,44.6,93,30.01,5.0,WNW,13.8,-,0.01,Rain,Light Rain,300,2013-05-03 15:42:00
10:53 AM,46.9,45.0,93,30.04,8.0,NW,12.7,-,0.01,,Overcast,310,2013-05-03 15:53:00
10:59 AM,46.4,44.6,93,30.02,6.0,WNW,17.3,24.2,0.00,Rain,Light Rain,300,2013-05-03 15:59:00
11:06 AM,46.4,42.8,87,30.02,9.0,NW,15.0,24.2,0.00,Rain,Light Rain,310,2013-05-03 16:06:00
11:53 AM,46.0,44.1,93,30.04,5.0,WNW,11.5,19.6,0.01,Rain,Light Rain,300,2013-05-03 16:53:00
12:07 PM,46.4,42.8,87,30.02,7.0,WNW,16.1,-,0.00,Rain,Light Rain,300,2013-05-03 17:07:00
12:45 PM,46.4,42.8,87,30.00,10.0,WNW,15.0,21.9,0.00,,Overcast,300,2013-05-03 17:45:00
12:53 PM,46.0,43.0,89,30.02,10.0,WNW,15.0,-,0.00,,Overcast,300,2013-05-03 17:53:00
1:44 PM,46.4,42.8,87,30.01,10.0,NW,13.8,-,N/A,,Overcast,310,2013-05-03 18:44:00
1:53 PM,46.0,42.1,86,30.03,10.0,WNW,15.0,-,N/A,,Overcast,300,2013-05-03 18:53:00
2:04 PM,46.4,42.8,87,30.01,10.0,WNW,15.0,24.2,N/A,,Overcast,290,2013-05-03 19:04:00
2:21 PM,46.4,41.0,81,30.01,10.0,NW,19.6,24.2,N/A,,Overcast,310,2013-05-03 19:21:00
2:53 PM,46.0,42.1,86,30.04,10.0,WNW,16.1,20.7,N/A,,Overcast,290,2013-05-03 19:53:00
3:05 PM,46.4,41.0,81,30.01,10.0,WNW,12.7,-,N/A,,Overcast,300,2013-05-03 20:05:00
3:53 PM,46.0,39.9,79,30.03,10.0,WNW,15.0,23.0,N/A,,Overcast,300,2013-05-03 20:53:00
4:53 PM,46.9,39.9,77,30.03,10.0,NW,12.7,21.9,N/A,,Overcast,310,2013-05-03 21:53:00
5:53 PM,48.0,39.9,74,30.03,10.0,WNW,12.7,-,N/A,,Overcast,300,2013-05-03 22:53:00
6:16 PM,48.2,41.0,76,30.01,10.0,NW,10.4,-,N/A,,Mostly Cloudy,320,2013-05-03 23:16:00
6:53 PM,50.0,39.0,66,30.04,10.0,NNW,16.1,-,N/A,,Scattered Clouds,330,2013-05-03 23:53:00
7:53 PM,46.9,39.9,77,30.04,10.0,NNW,6.9,-,N/A,,Clear,330,2013-05-04 00:53:00
8:53 PM,45.0,41.0,86,30.05,10.0,Calm,Calm,-,N/A,,Clear,0,2013-05-04 01:53:00
9:53 PM,41.0,39.9,96,30.06,10.0,Calm,Calm,-,N/A,,Clear,0,2013-05-04 02:53:00
10:53 PM,39.9,37.9,93,30.04,10.0,Calm,Calm,-,N/A,,Clear,0,2013-05-04 03:53:00
11:53 PM,39.9,39.0,97,30.04,7.0,Calm,Calm,-,N/A,,Clear,0,2013-05-04 04:53:00